Overview Statistics Trail Chart Weather Telemetry Raw packets
 

This is the latest recevied weather packets stored in our database for station/object KD0RIH. If no packets are shown the sender has not sent any weather packets the latest 10 day(s).

<< 1 2 3 4 5 6 >>
Time Temp. Humidity Pressure Rain* Wind** Luminosity Snow
1788561811 36.11° C 43% 1012.3 hPa 0 mm - 187 W/m² -
1788561510 36.67° C 42% 1012.5 hPa 0 mm - 208 W/m² -
1788561205 36.67° C 42% 1012.5 hPa 0 mm - 230 W/m² -
1788560902 36.67° C 42% 1012.3 hPa 0 mm - 247 W/m² -
1788560601 36.67° C 42% 1012.4 hPa 0 mm - 264 W/m² -
1788560302 36.67° C 43% 1012.5 hPa 0 mm - 283 W/m² -
1788560002 36.11° C 43% 1012.4 hPa 0 mm - 298 W/m² -
1788559697 36.11° C 43% 1012.6 hPa 0 mm - 323 W/m² -
1788559396 36.67° C 42% 1012.4 hPa 0 mm - 342 W/m² -
1788559092 36.67° C 43% 1012.6 hPa 0 mm - 359 W/m² -
1788558787 36.67° C 42% 1012.6 hPa 0 mm - 380 W/m² -
1788558482 36.67° C 42% 1012.5 hPa 0 mm - 399 W/m² -
1788558178 36.67° C 42% 1012.7 hPa 0 mm - 418 W/m² -
1788557876 36.67° C 42% 1012.9 hPa 0 mm - 437 W/m² -
1788557572 36.67° C 41% 1012.8 hPa 0 mm - 453 W/m² -
1788557268 36.67° C 43% 1012.6 hPa 0 mm - 471 W/m² -
1788556967 37.22° C 40% 1012.7 hPa 0 mm - 492 W/m² -
1788556663 36.67° C 42% 1012.7 hPa 0 mm - 505 W/m² -
1788556357 36.11° C 43% 1012.7 hPa 0 mm - 524 W/m² -
1788556052 36.67° C 42% 1012.6 hPa 0 mm - 544 W/m² -
1788555747 36.67° C 42% 1012.6 hPa 0 mm - 564 W/m² -
1788555443 37.22° C 43% 1012.9 hPa 0 mm - 580 W/m² -
1788555139 36.11° C 43% 1012.8 hPa 0 mm - 601 W/m² -
1788554843 36.11° C 43% 1012.8 hPa 0 mm - 620 W/m² -
1788554531 36.11° C 44% 1012.9 hPa 0 mm - 630 W/m² -

* Rain latest hour (hover to see other rain measurements)
** Current wind speed in m/s (hover to see current wind gust speed)